Location: Gälforsberget
(66.6500°N, 22.4167°E)
Time: 21:34:53
(UTC+00:00)

Cosmos 1346 Rocket - Pass Details

Date: 11 April 2026
Orbit: 472 x 484 km, 81.2° (Epoch: 16 May)

Event Time Altitude Azimuth Distance (km) Brightness Sun altitude
Rises 19:48:34 0° 337° (NNW) 2,554 7.9 -9.2°
Reaches altitude 10° 19:50:41 10° 336° (NNW) 1,668 6.7 -9.4°
Maximum altitude 19:54:19 73° 252° (WSW) 508 2.7 -9.6°
Enters shadow 19:57:41 12° 168° (SSE) 1,555 4.6 -9.8°
